This demonstration page uses our WeatherBlox Daily Observations layout. Learn more.

Left ArrowRight Arrow

53.60534, 11.34579

Hourly Observations for April 8, 2021

Temp ( °F °C ) Dew Point ( °F °C ) Humidity (%) Winds ( mph kmh ) Pressure ( in mb ) Visibility ( mi km ) Precip ( " mm )
7:20 am 07:20 Mostly Sunny 36 2 30 -1 81 81 SW 6 9 30.03 1017 7 11.26538 N/A
7:50 am 07:50 Mostly Sunny 36 2 30 -1 81 81 WSW 6 9 30.03 1017 7 11.26538 N/A
8:20 am 08:20 Mostly Sunny 37 3 30 -1 75 75 WSW 7 11 30.03 1017 7 11.26538 N/A
8:50 am 08:50 Mostly Sunny 39 4 30 -1 70 70 WSW 10 17 30.03 1017 30 48.2802 N/A
9:20 am 09:20 Mostly Sunny 39 4 30 -1 70 70 WSW 10 17 30.06 1018 30 48.2802 N/A
9:50 am 09:50 Partly Cloudy 39 4 30 -1 70 70 WSW 13 20 30.06 1018 30 48.2802 N/A
10:20 am 10:20 Mostly Cloudy 39 4 30 -1 70 70 SW 12 19 30.06 1018 30 48.2802 N/A
10:50 am 10:50 Mostly Cloudy 39 4 30 -1 70 70 SW 13 20 30.09 1019 30 48.2802 N/A
11:20 am 11:20 Mostly Cloudy 41 5 30 -1 66 66 SW 15 24 30.09 1019 30 48.2802 N/A
11:50 am 11:50 Mostly Cloudy with Light Showers 41 5 30 -1 66 66 SW 9 15 30.09 1019 30 48.2802 N/A
12:20 pm 12:20 Mostly Cloudy 39 4 30 -1 70 70 WSW 10 17 30.09 1019 30 48.2802 N/A
12:50 pm 12:50 Mostly Cloudy with Showers Nearby 41 5 32 0 70 70 SW 9 15 30.09 1019 30 48.2802 N/A
1:20 pm 13:20 Mostly Cloudy with Showers Nearby 41 5 36 2 81 81 SW 13 20 30.09 1019 30 48.2802 N/A
1:50 pm 13:50 Mostly Cloudy 43 6 34 1 71 71 SSW 13 20 30.09 1019 30 48.2802 N/A
2:20 pm 14:20 Mostly Cloudy 45 7 32 0 61 61 SW 16 26 30.09 1019 30 48.2802 N/A
2:50 pm 14:50 Mostly Cloudy with Showers Nearby 43 6 30 -1 61 61 SW 15 24 30.09 1019 30 48.2802 N/A
3:20 pm 15:20 Mostly Cloudy with Showers Nearby 41 5 30 -1 66 66 SW 14 22 30.09 1019 30 48.2802 N/A
3:50 pm 15:50 Mostly Cloudy 43 6 32 0 66 66 SW 13 20 30.09 1019 30 48.2802 N/A
4:20 pm 16:20 Mostly Cloudy 43 6 32 0 66 66 SW 12 19 30.09 1019 30 48.2802 N/A
4:50 pm 16:50 Mostly Cloudy 41 5 30 -1 66 66 SW 14 22 30.09 1019 30 48.2802 N/A
5:20 pm 17:20 Partly Cloudy 43 6 30 -1 61 61 SSW 13 20 30.09 1019 30 48.2802 N/A
5:50 pm 17:50 Partly Cloudy 43 6 30 -1 61 61 SSW 10 17 30.06 1018 30 48.2802 N/A
6:20 pm 18:20 Partly Cloudy 43 6 28 -2 57 57 SSW 12 19 30.06 1018 30 48.2802 N/A
6:50 pm 18:50 Mostly Sunny 43 6 28 -2 57 57 SSW 13 20 30.06 1018 30 48.2802 N/A
7:20 pm 19:20 Mostly Sunny 43 6 28 -2 57 57 S 12 19 30.06 1018 7 11.26538 N/A
7:50 pm 19:50 Mostly Sunny 41 5 28 -2 61 61 S 10 17 30.06 1018 7 11.26538 N/A
8:20 pm 20:20 Mostly Clear 41 5 28 -2 61 61 S 10 17 30.03 1017 7 11.26538 N/A
8:50 pm 20:50 Mostly Cloudy 39 4 30 -1 70 70 S 9 15 30.03 1017 30 48.2802 N/A
9:20 pm 21:20 Mostly Cloudy 41 5 28 -2 61 61 S 10 17 30.03 1017 30 48.2802 N/A
9:50 pm 21:50 Partly Cloudy 41 5 30 -1 66 66 S 10 17 30.03 1017 30 48.2802 N/A

Powered by AerisWeather